Terug naar catalogus

STARLINK-34911

ActiefCommunicatieVLEO
NORAD 65325·PAYLOAD·🇺🇸 United States

Gelanceerd Aug 27, 2025 vanaf Cape Canaveral Space Force Station

Loading…

Volgende Passages (komende 24 uur)

TLE

VersSource: CelesTrak SupGP

Epoch: Sep 14, 2026, 21:42 UTC

1 65325C 25189C   26257.90465278  .00045690  00000+0  13502-2 0  2572
2 65325  53.1600  45.5155 0001219  81.2083 131.3829 15.34361139    12

Volg STARLINK-34911 in realtime met AllMySat

Download on the App Store